Regional Weather Roundup
Issued by NWS

Home | Current Version | Previous Version | Text Only | Print | Product List | Glossary Off
Versions: 1 2 3 4 5 6 7 8 9 10 11 12 13 14 15 16 17 18 19 20 21 22 23 24 25 26 27 28 29 30 31 32 33 34 35 36 37 38 39 40 41 42 43 44 45 46 47 48 49 50

000
ASUS43 KMPX 182310
RWRMN
WEATHER ROUNDUP FOR MINNESOTA
NATIONAL WEATHER SERVICE TWIN CITIES/CHANHASSEN MN
500 PM CST WED JAN 18 2017


NOTE: "FAIR" INDICATES FEW OR NO CLOUDS BELOW 12,000 FEET WITH NO
SIGNIFICANT WEATHER AND/OR OBSTRUCTIONS TO VISIBILITY. N/A MEANS
CURRENT SKY AND/OR WEATHER CONDITIONS ARE NOT AVAILABLE.

MNZ060>063-068>070-190000-
   Twin Cities Metro

CITY           SKY/WX    TMP DP  RH WIND       PRES   REMARKS
TWIN CITIES    CLEAR     40  31  70 SW7       29.86S
ST PAUL        CLEAR     36  32  85 S10       29.87S
CRYSTAL        CLEAR     38  29  70 S7        29.84S
BLAINE         CLEAR     41  32  70 S8        29.84S
LAKEVILLE      CLEAR     36  32  87 S7        29.86S
EDEN PRAIRIE   CLEAR     38  31  76 S7        29.84F
SOUTH ST PAUL  CLEAR     38  32  79 S6        29.87R
LAKE ELMO      FAIR      36  32  87 S8        29.87S
$$
MNZ001>005-007-008-013>017-022>024-027-028-190000-
   Northwest Minnesota

CITY           SKY/WX    TMP DP  RH WIND       PRES   REMARKS
BEMIDJI        CLOUDY    40  28  62 SE3       29.72R
HALLOCK        CLOUDY    27  23  86 SE12      29.67S WCI  16
ROSEAU         CLOUDY    32  25  74 S9        29.68S WCI  24
WARROAD        CLOUDY    28  25  86 CALM      29.69R
THIEF RVR FALL CLOUDY    31  24  75 S8        29.70F WCI  23
CROOKSTON      CLOUDY    28  25  86 S12       29.71R WCI  18
FOSSTON        CLOUDY    30  23  74 S6        29.71S WCI  24
DETROIT LAKES  CLEAR     36  28  75 SE7       29.75R
MOORHEAD       CLEAR     34  27  75 S10       29.75R WCI  26
PARK RAPIDS    CLEAR     33  22  63 S6        29.74R WCI  28
MAHNOMEN       FAIR      34  26  71 S10       29.72R WCI  26
$$
MNZ006-009>011-018-025>026-190000-
   North Central Minnesota

CITY           SKY/WX    TMP DP  RH WIND       PRES   REMARKS
BAUDETTE       CLOUDY    34  23  64 S6        29.69S WCI  29
FLAG ISLAND    CLOUDY    25  19  80 S7        29.68S WCI  17
INTL FALLS     CLOUDY    33  24  69 CALM      29.72S
WASKISH        CLOUDY    36  27  69 SE3       29.71F
BIG FORK       CLOUDY    39  27  60 SE3       29.74R
LONGVILLE      CLOUDY    37  25  60 S8        29.76R
GRAND RAPIDS   CLOUDY    39  25  57 S8        29.77R
CRANE LAKE     CLOUDY    27  25  93 CALM      29.77R
ORR            CLOUDY    36  25  64 CALM      29.72S
COOK           CLOUDY    37  27  65 CALM      29.76R
WALKER         FAIR      40  26  56 S6        29.73S
$$
MNZ012-019>021-037-190000-
   Northeast Minnesota

CITY           SKY/WX    TMP DP  RH WIND       PRES   REMARKS
DULUTH         CLOUDY    37  26  64 SW6       29.79R
ELY            CLOUDY    36  25  64 S3        29.75S
HIBBING        CLOUDY    37  24  59 S3        29.76R
EVELETH        CLOUDY    37  22  55 CALM      29.78R
DULUTH HARBOR  CLOUDY    37  28  70 CALM      29.82R
TWO HARBORS    CLOUDY    39  28  65 SW7       29.77R
SILVER BAY     CLOUDY    37  28  70 CALM      29.76R
GRAND MARAIS     N/A     33  30  88 W3        29.79R
G MARAIS ARPRT CLOUDY    30  25  80 SW3       29.76R
$$
MNZ029>031-032-039>041-046>048-054>057-064-190000-
   West Central Minnesota

CITY           SKY/WX    TMP DP  RH WIND       PRES   REMARKS
FERGUS FALLS   CLEAR     34  27  75 SE10      29.79S WCI  26
WHEATON        CLEAR     39  34  81 SE6       29.77R
MORRIS         CLEAR     36  30  80 SE10      29.75S
ALEXANDRIA     CLEAR     34  27  75 SE6       29.78R WCI  29
ELBOW LAKE     FAIR      33  28  85 E9        29.76S HAZE    WCI  25
WADENA         CLEAR     34  25  69 S9        29.76S WCI  26
GLENWOOD       CLEAR     34  28  80 S5        29.79R WCI  30
APPLETON       CLEAR     37  28  70 SE6       29.76F
ORTONVILLE     CLEAR     37  27  65 CALM      29.75S
MADISON        CLEAR     37  30  75 E5        29.77S
WILLMAR        FAIR      34  30  86 CALM      29.81F
$$
MNZ033>034-036-042>043-049>051-058-059-190000-
   Central Minnesota

CITY           SKY/WX    TMP DP  RH WIND       PRES   REMARKS
ST CLOUD       CLEAR     35  29  78 S8        29.82R WCI  29
SAUK CENTRE    FAIR      33  28  82 SE6       29.79S WCI  28
PAYNESVILLE    CLEAR     35  30  82 SE5       29.80F WCI  31
AITKIN         CLEAR     39  23  52 S5        29.78R
PINE RIVER     CLEAR     37  27  65 S9        29.80S
BRAINERD       CLEAR     34  26  72 S8        29.79R WCI  27
STAPLES        CLEAR     36  25  64 S7        29.77S
LONG PRAIRIE   FAIR      32  28  86 E5        29.79S WCI  27
LITTLE FALLS   CLEAR     36  27  69 S6        29.81R
LITCHFIELD     CLEAR     37  34  87 SE5       29.82S
BUFFALO        CLEAR     37  31  79 S6        29.84S
MAPLE LAKE     CLEAR     37  32  84 CALM      29.84S
HUTCHINSON     CLOUDY    35  33  92 SE5       29.84S WCI  31
$$
MNZ037-044-045-052-053-190000-
   East Central Minnesota

CITY           SKY/WX    TMP DP  RH WIND       PRES   REMARKS
PRINCETON      CLEAR     37  30  75 S6        29.84R
MORA           CLEAR     36  28  75 S5        29.84S
CAMBRIDGE      CLEAR     41  28  60 S3        29.82S
RUSH CITY      CLEAR     39  28  65 S5        29.84R
MOOSE LAKE     CLEAR     37  28  70 S6        29.80R
HINCKLEY       FAIR      37  30  75 S5        29.83R
CLOQUET        CLOUDY    37  25  60 S5        29.80R
MCGREGOR       CLEAR     37  28  70 S7        29.79R
$$
MNZ071>073-080-081-089-090-097-098-190000-
   Southwest Minnesota

CITY           SKY/WX    TMP DP  RH WIND       PRES   REMARKS
MONTEVIDEO     CLEAR     37  30  75 S6        29.80S
GRANITE FALLS  CLEAR     36  32  84 S10       29.81S
CANBY            N/A     40  31  69 SW7       29.77S
MARSHALL       CLEAR     37  32  82 SW13      29.79S
REDWOOD FALLS  CLEAR     36  32  85 S6        29.81S
OLIVIA         CLEAR     36  32  87 S7        29.81S
PIPESTONE      CLEAR     37  34  87 S8        29.79F
WINDOM         CLEAR     39  36  87 S6        29.83S
WORTHINGTON    CLEAR     40  37  89 S10       29.83S
JACKSON        CLEAR     37  34  87 S12       29.85S
TRACY          CLEAR     39  34  83 SW18      29.80S
SLAYTON        CLEAR     37  35  90 S13       29.82R
$$
MNZ065>067-074>077-082>085-091>093-190000-
   South Central Minnesota

CITY           SKY/WX    TMP DP  RH WIND       PRES   REMARKS
MANKATO        CLEAR     37  34  89 S7        29.87S
NEW ULM        CLEAR     36  34  93 S12       29.84S
ST JAMES       CLEAR     37  36  93 SE5       29.86S
FAIRMONT       CLEAR     38  35  89 S13       29.87S
GLENCOE        CLEAR     37  35  92 S6        29.83F
FARIBAULT      CLEAR     37  34  87 S12       29.88S
OWATONNA       CLEAR     36  30  80 S8        29.89R
WASECA         CLEAR     36  34  93 S8        29.90R
ALBERT LEA     CLEAR     37  36  93 S8        29.90R
$$
MNZ078>079-086>088-094>096-190000-
   Southeast Minnesota

CITY           SKY/WX    TMP DP  RH WIND       PRES   REMARKS
ROCHESTER      CLEAR     32  31  96 S13       29.91S WCI  22
RED WING       CLEAR     37  30  75 S6        29.89S
STANTON        CLEAR     37  32  84 S9        29.86S
DODGE CENTER   CLEAR     32  30  93 S10       29.90R FOG     WCI  24
WINONA         CLEAR     34  32  93 S3        29.95S
AUSTIN         CLEAR     34  30  86 S10       29.92R FOG     WCI  26
PRESTON        CLOUDY    31  30  96 S16       29.93R FOG     WCI  20
$$
ABBREVIATIONS USED IN REMARKS
   TC - TEMPERATURES IN CELSIUS
  WCI - WIND CHILL INDEX
   HX - HEAT INDEX
  VSB - VISIBILITY
$$




USA.gov is the U.S. government's official web portal to all federal, state and local government web resources and services.